Hourly Weather Ruoshui

Today, 22 April, Thursday

Time Temperature Precipitation Wind Pressure Humidity
00:00 +19°C° 0 mm 0 mps 729 mmHg 98%
01:00 +19°C° 0 mm 0 mps 729 mmHg 98%
02:00 +19°C° 0 mm 0 mps 729 mmHg 98%
03:00 +21°C° 0 mm 1 mps 729 mmHg 98%
04:00 +21°C° 0 mm 1 mps 729 mmHg 98%
05:00 +19°C° 0.1 mm 0 mps 729 mmHg 97%
06:00 +19°C° 0.1 mm 0 mps 729 mmHg 97%
07:00 +19°C° 0 mm 0 mps 730 mmHg 97%
08:00 +20°C° 0 mm 0 mps 730 mmHg 94%
09:00 +21°C° 0 mm 0 mps 730 mmHg 92%
10:00 +22°C° 0 mm 0 mps 730 mmHg 89%
11:00 +23°C° 0 mm 0 mps 729 mmHg 86%
12:00 +24°C° 0 mm 0 mps 729 mmHg 83%
13:00 +25°C° 0 mm 0 mps 728 mmHg 80%
14:00 +25°C° 0 mm 0 mps 728 mmHg 81%
15:00 +27°C° 0 mm 1 mps 727 mmHg 81%
16:00 +27°C° 0 mm 1 mps 727 mmHg 81%
17:00 +26°C° 0 mm 1 mps 727 mmHg 85%
18:00 +25°C° 0 mm 1 mps 727 mmHg 89%
19:00 +24°C° 0 mm 1 mps 727 mmHg 92%
20:00 +24°C° 0 mm 1 mps 727 mmHg 93%
21:00 +23°C° 0 mm 1 mps 728 mmHg 93%
22:00 +23°C° 0 mm 1 mps 728 mmHg 94%
23:00 +23°C° 0 mm 1 mps 728 mmHg 94%

Tomorrow, 23 April, Friday

Time Temperature Precipitation Wind Pressure Humidity
00:00 +23°C° 0 mm 1 mps 727 mmHg 94%
01:00 +22°C° 0 mm 1 mps 727 mmHg 94%
02:00 +22°C° 0 mm 1 mps 727 mmHg 94%
03:00 +22°C° 0 mm 1 mps 727 mmHg 94%
04:00 +22°C° 0 mm 1 mps 727 mmHg 95%
05:00 +22°C° 0 mm 1 mps 727 mmHg 92%
06:00 +23°C° 0 mm 1 mps 727 mmHg 90%
07:00 +23°C° 0 mm 1 mps 728 mmHg 88%
08:00 +25°C° 0 mm 1 mps 728 mmHg 83%
09:00 +26°C° 0 mm 1 mps 728 mmHg 78%
10:00 +27°C° 0 mm 1 mps 728 mmHg 72%
11:00 +28°C° 0 mm 1 mps 727 mmHg 71%
12:00 +28°C° 0 mm 1 mps 727 mmHg 69%
13:00 +29°C° 0 mm 1 mps 726 mmHg 68%
14:00 +28°C° 0.1 mm 2 mps 726 mmHg 71%
15:00 +28°C° 0.1 mm 2 mps 726 mmHg 74%
16:00 +27°C° 0.1 mm 2 mps 725 mmHg 78%
17:00 +26°C° 0.2 mm 2 mps 726 mmHg 83%
18:00 +25°C° 0.2 mm 1 mps 726 mmHg 88%
19:00 +23°C° 0.2 mm 1 mps 726 mmHg 92%
20:00 +23°C° 0 mm 1 mps 727 mmHg 93%
21:00 +23°C° 0 mm 1 mps 727 mmHg 94%
22:00 +22°C° 0 mm 1 mps 727 mmHg 94%
23:00 +22°C° 0 mm 1 mps 727 mmHg 94%

Day after tomorrow, 24 April, Saturday

Time Temperature Precipitation Wind Pressure Humidity
00:00 +22°C° 0 mm 1 mps 727 mmHg 95%
01:00 +22°C° 0 mm 1 mps 727 mmHg 95%
02:00 +22°C° 0 mm 1 mps 727 mmHg 95%
03:00 +22°C° 0 mm 1 mps 726 mmHg 95%
04:00 +22°C° 0 mm 1 mps 726 mmHg 95%
05:00 +22°C° 0.1 mm 1 mps 727 mmHg 95%
06:00 +22°C° 0.1 mm 1 mps 728 mmHg 95%
07:00 +22°C° 0.1 mm 1 mps 728 mmHg 95%
08:00 +21°C° 0.8 mm 1 mps 729 mmHg 95%
09:00 +20°C° 0.8 mm 2 mps 729 mmHg 96%
10:00 +19°C° 0.8 mm 2 mps 729 mmHg 96%
11:00 +19°C° 0.9 mm 2 mps 729 mmHg 96%
12:00 +18°C° 0.9 mm 2 mps 729 mmHg 95%
13:00 +17°C° 0.9 mm 2 mps 729 mmHg 95%
14:00 +17°C° 0.9 mm 2 mps 729 mmHg 95%
15:00 +17°C° 0.9 mm 2 mps 729 mmHg 95%
16:00 +17°C° 0.9 mm 2 mps 729 mmHg 95%
17:00 +16°C° 0.6 mm 2 mps 730 mmHg 95%
18:00 +16°C° 0.6 mm 2 mps 731 mmHg 95%
19:00 +16°C° 0.6 mm 2 mps 732 mmHg 95%
20:00 +15°C° 0.1 mm 2 mps 732 mmHg 95%
21:00 +15°C° 0.1 mm 2 mps 733 mmHg 95%
22:00 +14°C° 0.1 mm 2 mps 733 mmHg 95%
23:00 +14°C° 0.2 mm 2 mps 733 mmHg 95%

25 April, Sunday

Time Temperature Precipitation Wind Pressure Humidity
00:00 +14°C° 0.2 mm 1 mps 733 mmHg 95%
01:00 +13°C° 0.2 mm 1 mps 733 mmHg 95%
02:00 +13°C° 0.2 mm 1 mps 733 mmHg 95%
03:00 +13°C° 0.2 mm 1 mps 733 mmHg 95%
04:00 +13°C° 0.2 mm 1 mps 733 mmHg 95%
05:00 +13°C° 0 mm 1 mps 734 mmHg 95%
06:00 +13°C° 0 mm 1 mps 734 mmHg 94%
07:00 +13°C° 0 mm 1 mps 734 mmHg 94%
08:00 +13°C° 0 mm 1 mps 734 mmHg 93%
09:00 +14°C° 0 mm 1 mps 735 mmHg 92%
10:00 +14°C° 0 mm 1 mps 735 mmHg 92%
11:00 +14°C° 0 mm 1 mps 734 mmHg 91%
12:00 +15°C° 0 mm 1 mps 734 mmHg 89%
13:00 +15°C° 0 mm 1 mps 733 mmHg 88%
14:00 +15°C° 0.1 mm 1 mps 733 mmHg 90%
15:00 +15°C° 0.1 mm 1 mps 733 mmHg 91%
16:00 +15°C° 0.1 mm 1 mps 733 mmHg 92%
17:00 +15°C° 0.2 mm 1 mps 733 mmHg 93%
18:00 +15°C° 0.2 mm 1 mps 733 mmHg 95%
19:00 +15°C° 0.2 mm 1 mps 733 mmHg 96%
20:00 +15°C° 0.1 mm 1 mps 734 mmHg 96%
21:00 +15°C° 0.1 mm 1 mps 734 mmHg 96%
22:00 +15°C° 0.1 mm 1 mps 734 mmHg 97%
23:00 +14°C° 0.4 mm 1 mps 734 mmHg 97%

26 April, Monday

Time Temperature Precipitation Wind Pressure Humidity
00:00 +14°C° 0.4 mm 1 mps 734 mmHg 97%
01:00 +14°C° 0.4 mm 1 mps 733 mmHg 98%
02:00 +14°C° 1.9 mm 1 mps 733 mmHg 98%
03:00 +14°C° 1.9 mm 1 mps 733 mmHg 98%
04:00 +14°C° 1.9 mm 1 mps 733 mmHg 98%
05:00 +13°C° 0.7 mm 0 mps 733 mmHg 98%
06:00 +14°C° 0.7 mm 0 mps 734 mmHg 97%
07:00 +14°C° 0.7 mm 0 mps 734 mmHg 96%
08:00 +15°C° 0 mm 0 mps 734 mmHg 93%
09:00 +15°C° 0 mm 0 mps 734 mmHg 90%
10:00 +16°C° 0 mm 0 mps 734 mmHg 86%
11:00 +17°C° 0 mm 0 mps 733 mmHg 83%
12:00 +18°C° 0 mm 0 mps 733 mmHg 81%
13:00 +19°C° 0 mm 0 mps 732 mmHg 78%
14:00 +18°C° 0 mm 0 mps 732 mmHg 80%
15:00 +20°C° 0 mm 1 mps 732 mmHg 82%
16:00 +20°C° 0 mm 1 mps 731 mmHg 84%
17:00 +19°C° 0 mm 1 mps 732 mmHg 86%
18:00 +17°C° 0 mm 0 mps 732 mmHg 89%
19:00 +16°C° 0 mm 0 mps 732 mmHg 91%
20:00 +16°C° 0 mm 0 mps 733 mmHg 91%
21:00 +18°C° 0 mm 1 mps 733 mmHg 92%
22:00 +18°C° 0 mm 1 mps 733 mmHg 92%
23:00 +18°C° 0 mm 1 mps 733 mmHg 93%

27 April, Tuesday

Time Temperature Precipitation Wind Pressure Humidity
00:00 +18°C° 0 mm 1 mps 733 mmHg 94%
01:00 +16°C° 0 mm 1 mps 733 mmHg 94%
02:00 +16°C° 0.2 mm 1 mps 732 mmHg 95%
03:00 +16°C° 0.2 mm 1 mps 732 mmHg 96%
04:00 +15°C° 0.2 mm 0 mps 732 mmHg 96%
05:00 +15°C° 1.2 mm 0 mps 733 mmHg 97%
06:00 +15°C° 1.2 mm 0 mps 733 mmHg 97%
07:00 +15°C° 1.2 mm 0 mps 733 mmHg 98%
08:00 +16°C° 0.4 mm 1 mps 734 mmHg 96%
09:00 +18°C° 0.4 mm 1 mps 734 mmHg 94%
10:00 +18°C° 0.4 mm 1 mps 734 mmHg 93%
11:00 +18°C° 0 mm 1 mps 734 mmHg 92%
12:00 +18°C° 0 mm 1 mps 733 mmHg 91%
13:00 +19°C° 0 mm 1 mps 733 mmHg 91%
14:00 +18°C° 0 mm 1 mps 733 mmHg 92%
15:00 +18°C° 0 mm 1 mps 733 mmHg 93%
16:00 +18°C° 0 mm 1 mps 732 mmHg 94%
17:00 +18°C° 0.2 mm 1 mps 733 mmHg 95%
18:00 +16°C° 0.2 mm 1 mps 733 mmHg 96%
19:00 +16°C° 0.2 mm 1 mps 733 mmHg 97%
20:00 +16°C° 0.1 mm 1 mps 734 mmHg 97%
21:00 +15°C° 0.1 mm 0 mps 734 mmHg 97%
22:00 +15°C° 0.1 mm 0 mps 735 mmHg 96%
23:00 +15°C° 0 mm 0 mps 734 mmHg 97%
Show more